Wind_Speed
27 27 25 25 26 26 22 21 19 13 3 6 12 12 14 14 11 17 19 16 14 18 10 10 10 11 11 9 10 12 10 10 6 2 6 2 3 4 4 4 5 8 8
19 22 20 21 21 20 21 23 21 15 7 5 16 18 17 12 14 14 18 16 15 18 12 14 16 15 12 17 13 10 4 4 8 1 3 2 8 9 6 7 4 3 6
12 15 16 16 17 19 24 23 20 16 10 7 12 16 18 14 15 16 22 18 17 17 19 19 10 15 11 15 17 13 10 7 5 5 5 12 7 6 9 7 3 1 4
9 10 11 13 17 22 22 22 21 15 12 8 9 10 7 11 12 22 22 21 21 21 17 20 23 22 18 8 21 21 16 13 6 9 11 12 7 3 3 4 4 4 6
7 8 15 12 14 21 23 21 22 18 13 14 12 9 10 9 9 6 15 25 27 26 24 24 24 20 20 22 25 23 17 15 16 8 11 11 9 2 2 9 8 5 5
13 15 16 13 10 12 15 20 23 17 12 12 10 12 13 13 12 9 10 13 20 26 31 33 30 24 25 29 27 24 22 18 16 16 13 12 18 15 5 6 11 15 6
10 15 16 19 19 8 16 26 24 18 14 17 18 16 16 18 15 11 9 10 14 17 19 24 28 24 21 25 30 30 31 28 19 16 18 19 21 19 15 13 11 10 14
17 17 14 17 20 15 12 16 18 20 21 25 23 20 23 22 22 18 14 14 13 14 18 20 23 25 27 25 24 23 25 27 27 23 24 23 25 23 16 17 13 10 12
20 18 22 18 21 26 26 25 23 23 22 22 21 24 23 27 22 21 19 18 13 14 18 19 23 25 19 20 21 24 28 25 23 20 20 24 27 26 26 17 16 14 16
15 24 28 28 29 29 32 32 33 33 32 30 31 25 25 27 30 26 22 21 13 19 16 17 21 24 15 14 20 20 23 23 20 19 21 22 29 29 27 25 26 21 17
9 9 13 22 29 33 36 38 39 38 37 35 33 32 29 27 32 30 26 26 20 23 19 25 30 24 16 11 18 19 17 25 21 23 22 25 32 33 29 22 24 21 17
15 16 15 16 17 19 24 32 37 40 40 39 39 38 37 34 33 34 32 33 34 29 29 23 29 23 20 17 15 20 23 24 23 24 23 25 33 33 35 30 27 25 22
17 18 20 21 22 22 24 25 27 30 36 39 41 43 42 41 40 38 36 35 36 37 33 26 26 23 17 22 24 21 25 22 23 28 26 26 33 35 39 33 31 31 27
23 23 25 26 27 27 28 31 30 31 32 32 36 41 44 45 44 45 43 42 40 38 37 31 28 25 22 23 25 28 32 27 25 27 30 29 36 34 39 37 34 36 34
31 32 30 30 33 35 35 36 37 36 37 36 37 36 38 42 45 45 44 40 41 43 38 38 34 30 30 28 29 35 35 29 27 26 28 31 37 40 39 38 35 34 38
39 39 39 40 41 41 42 43 43 43 42 43 43 42 40 38 40 46 47 46 44 45 44 41 38 35 33 28 26 23 25 26 29 29 30 34 37 42 42 40 38 37 38
46 45 47 49 50 51 50 50 49 49 49 48 50 47 46 47 42 40 45 51 48 45 48 47 42 39 36 33 27 25 29 31 28 27 29 33 35 40 44 41 38 39 36
51 52 55 55 55 57 57 55 53 50 51 52 54 56 51 49 50 44 40 45 50 49 45 49 49 43 41 36 33 28 31 32 28 28 28 28 34 37 43 45 39 40 38
58 59 58 60 59 61 62 61 60 58 55 54 56 59 61 56 52 50 41 39 41 50 50 46 48 48 43 40 35 31 34 35 32 30 29 28 30 35 41 45 46 41 41
63 63 64 64 66 67 68 69 68 64 60 58 58 59 63 63 57 51 45 37 32 36 45 49 48 44 42 42 37 32 33 38 37 35 32 29 31 30 37 41 44 43 43
64 64 66 68 70 74 72 74 73 70 67 64 64 64 65 66 63 57 54 43 38 32 37 47 51 48 42 43 41 34 33 35 40 39 38 35 34 38 37 39 42 42 41
68 69 70 72 77 76 76 70 64 59 54 50 55 64 72 69 69 60 55 43 40 28 39 48 52 48 44 44 44 38 33 32 41 42 39 38 38 39 38 40 41 41 40
68 72 75 77 77 76 65 58 55 51 49 43 46 52 68 77 75 70 67 45 41 57 60 53 52 52 45 40 44 43 39 36 35 44 42 40 39 41 41 40 42 43 39
70 74 77 79 76 66 56 43 42 40 38 37 42 47 63 75 75 74 78 67 52 59 54 70 56 51 44 40 40 43 41 38 38 40 46 43 43 43 43 42 43 41 43
73 74 75 74 62 51 44 38 34 31 29 31 37 48 61 75 78 78 78 74 77 77 73 54 59 52 49 49 43 43 47 47 42 39 47 51 47 44 49 47 43 45 44
74 74 72 59 50 42 39 35 32 31 27 28 30 47 61 79 92 85 75 69 74 82 77 64 52 49 48 44 44 50 51 50 45 45 47 51 54 50 50 51 50 48 49
Wind_Direction
257 255 242 245 246 239 234 217 205 203 186 219 222 233 250 239 232 223 212 244 231 221 225 239 267 263 274 296 318 335 29 38 2 324 284 357 337 358 43 45 76 68 78
243 247 245 240 232 230 210 197 200 196 209 211 230 233 243 242 231 238 238 239 232 218 246 259 251 235 242 281 272 314 293 57 9 281 141 313 316 357 347 2 26 68 107
240 247 246 232 224 202 196 194 204 207 214 221 228 236 232 236 244 235 238 243 262 256 247 252 224 225 232 269 301 280 285 222 20 322 216 158 281 261 2 338 354 169 163
222 235 226 232 216 203 205 203 206 210 217 213 221 235 224 231 258 246 241 230 230 250 243 262 270 270 251 235 262 267 286 280 284 298 219 221 235 228 15 342 92 156 193
150 158 190 228 209 215 209 211 199 206 214 222 222 222 223 239 270 269 234 240 241 252 249 252 265 260 245 242 254 271 270 289 258 289 205 241 245 220 147 270 35 3 204
195 191 208 217 186 222 246 218 211 208 221 228 227 232 238 247 274 272 258 250 253 256 254 251 256 259 256 251 256 253 257 257 257 265 282 242 218 202 112 212 193 199 169
217 201 207 203 193 222 243 245 226 219 232 242 246 252 249 248 253 261 274 278 270 268 263 254 253 259 259 256 249 250 253 249 249 252 257 231 219 211 240 212 202 223 244
221 217 234 219 213 235 231 233 242 230 237 236 236 254 248 248 257 262 259 266 274 272 271 261 254 259 267 259 245 235 237 245 246 251 257 225 214 210 181 189 164 211 182
249 231 219 235 235 230 245 247 250 245 245 245 242 254 253 259 252 250 255 256 265 306 282 261 252 270 271 251 237 225 229 236 242 227 221 206 211 207 198 199 197 218 166
243 242 243 247 236 239 248 251 252 257 259 256 249 251 252 254 249 251 255 250 265 281 271 272 274 258 253 254 250 242 237 226 232 213 213 211 211 211 206 207 223 223 186
277 254 249 250 250 253 252 257 257 254 255 255 254 256 259 255 249 249 251 247 253 263 254 241 250 254 242 250 252 244 242 238 236 223 225 218 206 206 209 195 197 214 218
299 294 283 270 259 256 257 258 258 260 261 259 254 252 252 249 251 250 248 255 257 253 253 250 237 267 257 257 258 248 243 242 241 222 220 220 207 205 208 211 204 208 218
279 275 276 281 279 272 269 265 266 264 260 259 257 253 252 251 247 248 248 254 257 255 260 254 259 268 274 270 262 264 240 243 241 222 219 217 209 211 208 212 211 209 211
287 282 278 272 268 267 270 271 266 264 262 263 262 258 252 250 250 248 249 249 253 250 252 260 265 271 274 277 264 267 261 240 238 222 220 215 213 215 210 213 213 215 217
294 289 279 277 277 273 268 267 266 263 261 259 259 260 258 255 248 246 247 247 241 244 247 251 259 270 274 278 279 274 248 230 224 213 216 217 216 217 216 211 218 222 220
294 291 292 290 282 275 273 271 267 262 258 258 255 252 253 257 253 246 243 246 244 239 244 245 248 257 266 273 283 266 231 227 223 222 221 222 221 220 221 223 228 228 224
295 297 294 292 290 286 282 275 269 264 258 252 252 251 249 249 252 249 246 242 243 241 239 241 245 252 255 262 272 264 234 224 223 230 233 233 228 227 225 226 230 228 231
297 296 295 293 290 289 287 283 277 267 258 252 248 248 246 245 244 247 250 247 243 242 245 243 242 246 251 255 262 268 249 235 231 239 238 245 240 232 224 222 226 226 229
297 296 294 293 290 289 286 284 281 275 266 254 246 245 245 241 239 240 245 250 247 244 245 248 248 248 247 252 255 257 252 241 237 242 241 249 243 228 221 223 226 232 230
296 295 295 294 293 291 288 287 283 276 267 258 250 241 239 240 236 234 234 242 247 246 245 245 248 245 246 245 248 253 252 241 238 242 241 242 235 238 225 225 224 230 230
293 295 295 296 295 294 293 291 286 278 270 261 250 240 233 233 233 227 225 234 242 254 253 246 246 245 245 239 241 249 247 252 237 240 241 241 239 233 236 228 227 230 232
297 298 299 299 299 299 299 294 287 280 270 260 247 236 227 223 227 223 220 216 212 247 267 253 244 243 245 237 239 246 252 251 240 237 242 243 243 233 233 228 233 235 237
299 300 302 302 302 304 301 295 286 278 268 253 242 230 224 219 221 219 213 207 191 196 259 254 246 244 246 242 238 245 253 251 253 239 242 243 241 235 232 230 235 241 240
300 302 303 305 307 303 299 293 282 274 263 250 234 223 215 216 211 214 213 211 185 194 194 233 240 236 240 246 242 239 245 255 253 248 242 242 242 240 233 232 235 234 235
302 304 305 306 302 302 298 299 291 280 271 252 229 215 211 211 201 202 201 195 187 196 208 203 231 226 232 239 240 245 248 248 256 255 247 243 243 243 234 234 236 236 240
304 306 306 303 299 297 294 299 295 288 274 261 241 215 209 207 196 195 190 192 194 202 194 211 215 214 215 229 238 243 249 251 252 251 250 247 245 244 240 243 246 244 248
Height
10930 10934 10930 10933 10934 10937 10940 10944 10948 10952 10953 10954 10956 10958 10959 10961 10963 10964 10967 10969 10972 10973 10976 10979 10985 10988 10983 10982 10984 10987 10991 10990 10985 10984 10989 10989 10988 10988 10987 10986 10987 10988 10988
10917 10928 10929 10928 10932 10934 10936 10940 10945 10949 10950 10952 10954 10955 10957 10959 10962 10964 10966 10968 10970 10973 10976 10976 10980 10983 10984 10983 10983 10984 10988 10987 10984 10986 10991 10983 10985 10990 10990 10990 10989 10991 10992
10911 10925 10929 10929 10930 10932 10935 10938 10943 10947 10948 10950 10953 10953 10954 10957 10960 10962 10964 10966 10968 10973 10973 10972 10976 10979 10982 10982 10981 10984 10983 10986 10985 10989 10991 10986 10987 10990 10992 10992 10991 10993 10996
10916 10928 10930 10929 10931 10933 10934 10936 10941 10943 10945 10946 10948 10949 10951 10955 10957 10957 10961 10963 10963 10969 10973 10971 10973 10978 10984 10978 10977 10981 10981 10984 10985 10989 10987 10988 10990 10990 10989 10989 10988 10991 10997
10921 10930 10921 10914 10924 10933 10934 10934 10937 10939 10941 10944 10945 10947 10949 10951 10953 10955 10958 10961 10961 10963 10970 10972 10973 10975 10979 10981 10981 10977 10977 10980 10980 10985 10989 10986 10991 10990 10988 10986 10991 10996 10997
10926 10928 10918 10914 10923 10932 10933 10933 10935 10938 10940 10941 10943 10944 10946 10948 10951 10953 10956 10958 10959 10958 10959 10962 10963 10965 10969 10975 10980 10980 10979 10980 10981 10981 10983 10985 10986 10985 10987 10988 10997 10986 10998
10921 10924 10925 10926 10927 10927 10927 10930 10933 10935 10937 10939 10941 10942 10943 10945 10948 10951 10954 10954 10953 10953 10953 10955 10957 10959 10962 10965 10972 10978 10979 10981 10983 10982 10980 10982 10980 10979 10987 10987 10992 10994 10994
10917 10918 10920 10921 10922 10922 10924 10927 10929 10931 10932 10934 10937 10939 10941 10942 10945 10948 10949 10949 10948 10949 10952 10954 10955 10956 10955 10956 10960 10967 10972 10974 10977 10979 10977 10976 10977 10978 10980 10984 10990 10991 10990
10914 10915 10916 10918 10919 10920 10921 10922 10924 10926 10928 10930 10931 10934 10936 10939 10942 10943 10942 10943 10945 10949 10948 10945 10949 10952 10948 10947 10951 10957 10962 10966 10970 10973 10974 10973 10975 10977 10980 10983 10988 10990 10991
10912 10913 10914 10915 10916 10917 10917 10918 10919 10920 10921 10924 10925 10927 10931 10934 10937 10937 10936 10939 10945 10942 10936 10933 10937 10947 10944 10941 10943 10947 10954 10959 10963 10967 10969 10972 10974 10975 10978 10980 10983 10986 10984
10910 10910 10910 10910 10911 10912 10912 10913 10913 10914 10916 10917 10918 10921 10925 10928 10932 10932 10929 10931 10939 10938 10938 10930 10937 10943 10940 10936 10937 10941 10945 10951 10957 10959 10962 10966 10969 10974 10976 10979 10979 10980 10981
10906 10905 10906 10905 10905 10905 10905 10905 10905 10906 10907 10909 10911 10913 10916 10920 10924 10925 10923 10924 10928 10933 10937 10940 10941 10936 10932 10929 10932 10934 10937 10942 10948 10951 10954 10958 10963 10968 10972 10974 10978 10979 10978
10902 10902 10900 10900 10899 10899 10898 10898 10898 10898 10898 10899 10901 10904 10907 10911 10915 10917 10916 10916 10918 10918 10922 10928 10929 10926 10923 10924 10926 10929 10933 10936 10940 10943 10946 10951 10956 10961 10966 10970 10975 10977 10977
10896 10895 10894 10893 10893 10892 10891 10889 10890 10890 10890 10890 10891 10891 10894 10897 10902 10908 10908 10907 10908 10908 10909 10912 10914 10915 10917 10920 10922 10924 10927 10931 10933 10935 10937 10943 10949 10954 10960 10964 10968 10973 10974
10886 10885 10885 10886 10884 10883 10883 10882 10880 10881 10881 10882 10881 10882 10883 10885 10889 10894 10899 10899 10899 10901 10903 10904 10906 10909 10914 10916 10918 10917 10919 10925 10928 10929 10931 10937 10941 10947 10952 10957 10962 10966 10969
10874 10873 10873 10872 10871 10870 10869 10869 10868 10869 10870 10870 10869 10871 10872 10875 10875 10877 10884 10889 10892 10893 10895 10898 10902 10905 10910 10913 10914 10914 10914 10918 10922 10923 10926 10929 10933 10939 10944 10950 10954 10958 10962
10860 10860 10859 10857 10855 10853 10853 10852 10852 10852 10853 10855 10855 10855 10859 10861 10863 10865 10868 10873 10879 10884 10886 10891 10894 10898 10903 10908 10910 10911 10912 10914 10916 10918 10921 10924 10927 10932 10938 10943 10947 10951 10955
10846 10845 10843 10840 10839 10835 10832 10831 10831 10833 10834 10837 10838 10838 10841 10845 10849 10851 10856 10860 10866 10872 10878 10881 10885 10889 10893 10899 10902 10904 10905 10906 10908 10911 10914 10918 10921 10923 10927 10934 10939 10943 10948
10831 10829 10825 10822 10819 10816 10813 10811 10810 10810 10811 10815 10819 10821 10824 10827 10833 10839 10844 10849 10854 10859 10865 10871 10874 10877 10882 10887 10892 10895 10897 10899 10903 10905 10907 10911 10912 10915 10920 10924 10930 10935 10940
10815 10810 10806 10802 10798 10793 10790 10786 10784 10784 10786 10790 10795 10801 10804 10810 10817 10824 10831 10834 10838 10844 10852 10858 10863 10866 10871 10876 10881 10885 10889 10892 10897 10900 10902 10904 10906 10909 10913 10917 10922 10926 10931
10799 10794 10788 10783 10775 10767 10763 10756 10751 10748 10750 10757 10765 10773 10781 10788 10796 10804 10811 10817 10824 10831 10839 10844 10850 10855 10860 10866 10871 10877 10880 10883 10888 10892 10895 10897 10899 10903 10907 10911 10914 10919 10924
10775 10771 10766 10759 10748 10740 10732 10724 10716 10713 10716 10723 10729 10739 10750 10763 10771 10786 10796 10795 10801 10813 10830 10837 10839 10845 10851 10857 10863 10869 10871 10876 10878 10883 10886 10888 10891 10896 10900 10904 10909 10912 10916
10760 10751 10743 10737 10727 10715 10706 10699 10691 10688 10689 10695 10701 10710 10720 10733 10748 10763 10776 10772 10773 10800 10824 10827 10830 10836 10845 10849 10855 10862 10864 10868 10871 10876 10877 10879 10883 10888 10891 10896 10900 10904 10907
10743 10735 10724 10713 10704 10695 10688 10681 10674 10669 10669 10672 10677 10687 10696 10705 10726 10738 10749 10759 10766 10784 10799 10808 10816 10824 10835 10842 10846 10852 10854 10856 10863 10867 10871 10873 10875 10879 10883 10886 10891 10895 10897
10724 10716 10707 10698 10687 10679 10672 10668 10663 10660 10659 10659 10662 10669 10675 10685 10707 10714 10724 10738 10753 10769 10778 10787 10797 10810 10821 10826 10833 10837 10842 10845 10851 10856 10859 10862 10865 10868 10872 10876 10879 10883 10886
10706 10697 10687 10680 10672 10666 10661 10657 10655 10651 10650 10648 10649 10654 10661 10668 10684 10697 10706 10722 10734 10754 10761 10774 10785 10795 10805 10811 10816 10822 10828 10833 10838 10841 10845 10851 10855 10858 10860 10864 10868 10871 10875